FENGYUN 1C DEB

Satellite information

Favourite Embed

Satellite Type and Status

DEBRISIN ORBIT

Key statistics

Satellite FENGYUN 1C DEB at a glance.

Uptime

9715

Days in orbit

Revolutions

≈ 14.1

Per day

Orbit

SSO

Sun Synchronous Orbit

Inclination

99.0

Latest

Satellite identification and parameters

Extended collection of information and parameters for FENGYUN 1C DEB.

Object identification

Identified? True

Debris? True

Object name: FENGYUN 1C DEB

International designator: 1999-025AHV

Object number (NORAD): 30507

Object ID (CCSDS): 30507

Country: PEOPLES REPUBLIC OF CHINA (PRC)

Current information (Y/N): Y

RCS size: SMALL

Orbital parameters

Period: 101.897 minutes

Inclination: 99.0141 deg

SMA: 7226.628 km

Apoapsis: 941.274 km

Periapsis: 755.712 km

RAAN: 52.1833 deg

Eccentricy: 0.01283878

Argument of periapsis: 173.6524 deg

Mean anomaly: 316.5161 deg

Mean motion: 14.13185595 rev/day

Mean motion (dot): 0.00003078 rev/day2

B* drag term: 0.0015425349 1/REarth

Two-line elements (TLE)

Creation date: Dec. 14, 2025, 3:07 a.m.

Reference frame: TEME

Reference center: EARTH

Epoch: Dec. 13, 2025, 4:37 p.m. UTC

TLE line 0: 0 FENGYUN 1C DEB

TLE line 1: 1 30507U 99025AHV 25347.69260331 .00003078 00000-0 15425-2 0 9998

TLE line 2: 2 30507 99.0141 52.1833 0128388 173.6524 316.5161 14.13185595965118

Live tracking on map

Real-time ground track for satellite FENGYUN 1C DEB.

In-orbit conjunctions

A list of the most updated potential collisions computed for object FENGYUN 1C DEB.

Target Orbit TCA Probability of collision Miss distance Type
METEOR 2-16 LEO 2024-08-20 13:53:19 0.0001016734 600.0 (m) PAYLOAD
FENGYUN 1C DEB SSO 2024-06-17 14:00:58 0.0002115482 125.0 (m) DEBRIS

Associated space launch

Chinese polar orbiting meteorological satellite

FENGYUN 1C DEB was lifted into orbit during the mission ‘Long March 4B | Feng Yun 1C’, on board a Long March 4B space rocket.

The launch took place on May 10, 1999, 1:33 a.m. from Launch Complex 7.

For more information about the launch, click the button.

Launch to space Long March 4B | Feng Yun 1C
Long March 4B | Feng Yun 1C

Agency: N/A

Status: Launch Successful

Launch date: May 10, 1999, 1:33 a.m. UTC

Rocket: Long March 4B

Launch pad: Launch Complex 7

Location: Taiyuan Satellite Launch Center, People's Republic of China

...

Latest news about this satellite

There are no fresh news available about this satellite. Check back as we update our databases every day.


Newsletter sign-up

Weekly statistics, charts and insights to help you stay on top of the space industry.